#timestamp,LO_Frequency,Hit,Temp,Hum 
1479985215.1,286046923.3,N,0.0,0.0
1479985216.0,286046923.3,N,0.0,0.0
1479985235.8,286046923.5,N,0.0,0.0
1479985255.7,286046923.9,N,0.0,0.0
1479985275.5,286046921.3,N,0.0,0.0
1479985295.3,286046923.9,N,0.0,0.0
1479985315.2,286046923.8,N,0.0,0.0
1479985335.0,286046922.9,N,0.0,0.0
1479985335.9,286046922.9,N,0.0,0.0
1479985355.8,286046923.8,N,0.0,0.0
1479985375.6,286046926.0,N,0.0,0.0
1479985395.4,286046925.8,N,0.0,0.0
1479985415.3,286046925.9,N,0.0,0.0
1479985435.1,286046923.0,N,0.0,0.0
1479985455.9,286046926.0,N,0.0,0.0
1479985475.7,286046924.7,N,0.0,0.0
1479985495.5,286046927.6,N,0.0,0.0
1479985515.4,286046926.7,N,0.0,0.0
1479985535.2,286046924.9,N,0.0,0.0
1479985555.0,286046924.5,N,0.0,0.0
1479985555.9,286046924.5,N,0.0,0.0
1479985575.8,286046927.0,N,0.0,0.0
1479985595.6,286046926.7,N,0.0,0.0
1479985615.5,286046929.1,N,0.0,0.0
1479985635.3,286046926.5,N,0.0,0.0
1479985655.1,286046926.1,N,0.0,0.0
1479985675.9,286046928.8,N,0.0,0.0
1479985695.7,286046928.4,N,0.0,0.0
1479985715.6,286046928.4,N,0.0,0.0
1479985735.4,286046930.5,N,0.0,0.0
1479985755.2,286046929.6,N,0.0,0.0
1479985775.1,286046929.8,N,0.0,0.0
1479985776.0,286046929.8,N,0.0,0.0
1479985795.8,286046929.8,N,0.0,0.0
1479985815.6,286046928.2,N,0.0,0.0
1479985835.5,286046930.1,N,0.0,0.0
1479985855.3,286046932.4,N,0.0,0.0
1479985875.2,286046931.9,N,0.0,0.0
1479985895.9,286046932.1,N,0.0,0.0
1479985915.7,286046931.5,N,0.0,0.0
1479985935.6,286046930.9,N,0.0,0.0
1479985955.4,286046934.0,N,0.0,0.0
1479985975.3,286046933.9,N,0.0,0.0
1479985995.1,286046932.2,N,0.0,0.0
1479985996.0,286046932.2,N,0.0,0.0
1479986015.8,286046929.8,N,0.0,0.0
1479986035.7,286046931.6,N,0.0,0.0
1479986055.5,286046931.0,N,0.0,0.0
1479986075.4,286046933.6,N,0.0,0.0
1479986095.2,286046933.6,N,0.0,0.0
1479986115.0,286046933.9,N,0.0,0.0
1479986115.9,286046933.9,N,0.0,0.0
1479986135.8,286046932.0,N,0.0,0.0
1479986155.6,286046931.9,N,0.0,0.0
1479986175.5,286046930.9,N,0.0,0.0
1479986195.3,286046933.8,N,0.0,0.0
1479986215.1,286046933.2,N,0.0,0.0
1479986235.9,286046933.3,N,0.0,0.0
1479986255.7,286046932.5,N,0.0,0.0
1479986275.5,286046932.5,N,0.0,0.0
1479986295.4,286046932.5,N,0.0,0.0
1479986315.2,286046932.9,N,0.0,0.0
1479986335.1,286046934.9,N,0.0,0.0
1479986336.0,286046934.9,N,0.0,0.0
1479986355.8,286046934.9,N,0.0,0.0
1479986375.6,286046934.8,N,0.0,0.0
1479986395.5,286046937.1,N,0.0,0.0
1479986415.3,286046936.4,N,0.0,0.0
1479986435.2,286046938.8,N,0.0,0.0
1479986455.9,286046937.1,N,0.0,0.0
1479986475.7,286046934.6,N,0.0,0.0
1479986495.6,286046934.4,N,0.0,0.0
1479986515.4,286046935.5,N,0.0,0.0
1479986535.2,286046932.6,N,0.0,0.0
1479986555.1,286046932.8,N,0.0,0.0
1479986556.0,286046932.8,N,0.0,0.0
1479986575.8,286046932.6,N,0.0,0.0
1479986595.7,286046935.1,N,0.0,0.0
1479986615.5,286046933.7,N,0.0,0.0
1479986635.3,286046933.2,N,0.0,0.0
1479986655.2,286046933.5,N,0.0,0.0
1479986675.0,286046933.4,N,0.0,0.0
1479986675.9,286046933.4,N,0.0,0.0
1479986695.8,286046933.8,N,0.0,0.0
1479986715.6,286046933.0,N,0.0,0.0
1479986735.4,286046933.2,N,0.0,0.0
1479986755.3,286046935.0,N,0.0,0.0
1479986775.1,286046933.2,N,0.0,0.0
1479986795.8,286046933.5,N,0.0,0.0
1479986815.7,286046935.5,N,0.0,0.0
1479986835.5,286046937.2,N,0.0,0.0
1479986855.4,286046937.0,N,0.0,0.0
1479986875.2,286046935.9,N,0.0,0.0
1479986895.0,286046936.1,N,0.0,0.0
1479986895.9,286046936.1,N,0.0,0.0
1479986915.8,286046938.8,N,0.0,0.0
1479986935.6,286046936.4,N,0.0,0.0
1479986955.5,286046936.5,N,0.0,0.0
1479986975.3,286046934.7,N,0.0,0.0
1479986995.1,286046934.3,N,0.0,0.0
1479987015.9,286046935.2,N,0.0,0.0
1479987035.7,286046935.5,N,0.0,0.0
1479987055.5,286046932.8,N,0.0,0.0
1479987075.4,286046933.0,N,0.0,0.0
1479987095.2,286046933.3,N,0.0,0.0
1479987115.1,286046934.0,N,0.0,0.0
1479987116.0,286046934.0,N,0.0,0.0
1479987135.8,286046931.0,N,0.0,0.0
1479987155.6,286046933.5,N,0.0,0.0
1479987175.5,286046933.5,N,0.0,0.0
1479987195.3,286046931.3,N,0.0,0.0
1479987215.2,286046933.8,N,0.0,0.0
1479987235.9,286046931.3,N,0.0,0.0
1479987255.7,286046931.0,N,0.0,0.0
1479987275.6,286046931.4,N,0.0,0.0
1479987295.4,286046931.1,N,0.0,0.0
1479987315.2,286046931.3,N,0.0,0.0
1479987335.1,286046931.2,N,0.0,0.0
1479987336.0,286046931.2,N,0.0,0.0
1479987355.8,286046929.3,N,0.0,0.0
1479987375.7,286046928.3,N,0.0,0.0
1479987395.5,286046928.7,N,0.0,0.0
1479987415.3,286046926.6,N,0.0,0.0
1479987435.2,286046926.5,N,0.0,0.0
1479987455.0,286046927.1,N,0.0,0.0
1479987455.9,286046927.1,N,0.0,0.0
1479987475.8,286046927.6,N,0.0,0.0
1479987495.6,286046927.3,N,0.0,0.0
1479987515.4,286046926.9,N,0.0,0.0
1479987535.3,286046927.6,N,0.0,0.0
1479987555.1,286046925.0,N,0.0,0.0
1479987575.9,286046925.7,N,0.0,0.0
1479987595.7,286046923.6,N,0.0,0.0
1479987615.5,286046923.3,N,0.0,0.0
1479987635.4,286046925.5,N,0.0,0.0
1479987655.2,286046923.7,N,0.0,0.0
1479987675.1,286046921.9,N,0.0,0.0
1479987676.0,286046921.9,N,0.0,0.0
1479987695.8,286046920.2,N,0.0,0.0
1479987715.6,286046920.9,N,0.0,0.0
1479987735.5,286046918.2,N,0.0,0.0
1479987755.3,286046918.3,N,0.0,0.0
1479987775.1,286046919.2,N,0.0,0.0
1479987795.9,286046919.6,N,0.0,0.0
1479987815.7,286046919.2,N,0.0,0.0
1479987835.6,286046917.0,N,0.0,0.0
1479987855.4,286046919.6,N,0.0,0.0
1479987875.2,286046915.4,N,0.0,0.0
1479987895.1,286046916.0,N,0.0,0.0
1479987896.0,286046916.0,N,0.0,0.0
1479987915.8,286046913.7,N,0.0,0.0
1479987935.7,286046913.3,N,0.0,0.0
1479987955.5,286046916.3,N,0.0,0.0
1479987975.3,286046913.3,N,0.0,0.0
1479987995.2,286046914.1,N,0.0,0.0
1479988015.0,286046912.1,N,0.0,0.0
1479988015.9,286046912.1,N,0.0,0.0
1479988035.7,286046912.6,N,0.0,0.0
1479988055.6,286046912.4,N,0.0,0.0
1479988075.4,286046912.0,N,0.0,0.0
1479988095.3,286046912.8,N,0.0,0.0
1479988115.1,286046910.6,N,0.0,0.0
1479988135.8,286046910.4,N,0.0,0.0
1479988155.7,286046910.6,N,0.0,0.0
1479988175.5,286046910.6,N,0.0,0.0
1479988195.4,286046910.4,N,0.0,0.0
1479988215.2,286046910.7,N,0.0,0.0
1479988235.0,286046910.6,N,0.0,0.0
1479988235.9,286046910.6,N,0.0,0.0
1479988255.8,286046913.1,N,0.0,0.0
1479988275.6,286046910.6,N,0.0,0.0
1479988295.5,286046910.9,N,0.0,0.0
1479988315.3,286046908.5,N,0.0,0.0
1479988335.1,286046909.1,N,0.0,0.0
1479988355.9,286046909.3,N,0.0,0.0
1479988375.7,286046909.4,N,0.0,0.0
1479988395.5,286046906.9,N,0.0,0.0
1479988415.4,286046907.0,N,0.0,0.0
1479988435.2,286046909.5,N,0.0,0.0
1479988455.1,286046909.9,N,0.0,0.0
1479988456.0,286046909.9,N,0.0,0.0
1479988475.8,286046907.0,N,0.0,0.0
1479988495.6,286046907.7,N,0.0,0.0
1479988515.5,286046905.3,N,0.0,0.0
1479988535.3,286046906.5,N,0.0,0.0
1479988555.2,286046906.3,N,0.0,0.0
1479988575.9,286046906.5,N,0.0,0.0
1479988595.7,286046906.6,N,0.0,0.0
1479988615.6,286046906.8,N,0.0,0.0
1479988635.4,286046906.7,N,0.0,0.0
1479988655.2,286046906.3,N,0.0,0.0
1479988675.1,286046906.6,N,0.0,0.0
1479988676.0,286046906.6,N,0.0,0.0
1479988695.8,286046905.4,N,0.0,0.0
1479988715.7,286046905.6,N,0.0,0.0
1479988735.5,286046908.3,N,0.0,0.0
1479988755.3,286046905.7,N,0.0,0.0
1479988775.2,286046906.5,N,0.0,0.0
1479988795.0,286046905.5,N,0.0,0.0
1479988795.9,286046905.5,N,0.0,0.0
